Year,Month,Day,Hour,Minute,Value (Times are PST for insolation in W/m^2)
2009,09,01,00,00,0.00
2009,09,01,00,01,0.00
2009,09,01,00,02,0.00
2009,09,01,00,03,0.00
2009,09,01,00,04,0.00
2009,09,01,00,05,0.00
2009,09,01,00,06,0.00
2009,09,01,00,07,0.00
2009,09,01,00,08,0.00
2009,09,01,00,09,0.00
2009,09,01,00,10,0.00
2009,09,01,00,11,0.00
2009,09,01,00,12,0.00
2009,09,01,00,13,0.00
2009,09,01,00,14,0.00
2009,09,01,00,15,0.00
2009,09,01,00,16,0.00
2009,09,01,00,17,0.00
2009,09,01,00,18,0.00
2009,09,01,00,19,0.00
2009,09,01,00,20,0.00
2009,09,01,00,21,0.00
2009,09,01,00,22,0.00
2009,09,01,00,23,0.00
2009,09,01,00,24,0.00
2009,09,01,00,25,0.00
2009,09,01,00,26,0.00
2009,09,01,00,27,0.00
2009,09,01,00,28,0.00
2009,09,01,00,29,0.00
2009,09,01,00,30,0.00
2009,09,01,00,31,0.00
2009,09,01,00,32,0.00
2009,09,01,00,33,0.00
2009,09,01,00,34,0.00
2009,09,01,00,35,0.00
2009,09,01,00,36,0.00
2009,09,01,00,37,0.00
2009,09,01,00,38,0.00
2009,09,01,00,39,0.00
2009,09,01,00,40,0.00
2009,09,01,00,41,0.00
2009,09,01,00,42,0.00
2009,09,01,00,43,0.00
2009,09,01,00,44,0.00
2009,09,01,00,45,0.00
2009,09,01,00,46,0.00
2009,09,01,00,47,0.00
2009,09,01,00,48,0.00
2009,09,01,00,49,0.00
2009,09,01,00,50,0.00
2009,09,01,00,51,0.00
2009,09,01,00,52,0.00
2009,09,01,00,53,0.00
2009,09,01,00,54,0.00
2009,09,01,00,55,0.00
2009,09,01,00,56,0.00
2009,09,01,00,57,0.00
2009,09,01,00,58,0.00
2009,09,01,00,59,0.00
2009,09,01,01,00,0.00
2009,09,01,01,01,0.00
2009,09,01,01,02,0.00
2009,09,01,01,03,0.00
2009,09,01,01,04,0.00
2009,09,01,01,05,0.00
2009,09,01,01,06,0.00
2009,09,01,01,07,0.00
2009,09,01,01,08,0.00
2009,09,01,01,09,0.00
2009,09,01,01,10,0.00
2009,09,01,01,11,0.00
2009,09,01,01,12,0.00
2009,09,01,01,13,0.00
2009,09,01,01,14,0.00
2009,09,01,01,15,0.00
2009,09,01,01,16,0.00
2009,09,01,01,17,0.00
2009,09,01,01,18,0.00
2009,09,01,01,19,0.00
2009,09,01,01,20,0.00
2009,09,01,01,21,0.00
2009,09,01,01,22,0.00
2009,09,01,01,23,0.00
2009,09,01,01,24,0.00
2009,09,01,01,25,0.00
2009,09,01,01,26,0.00
2009,09,01,01,27,0.00
2009,09,01,01,28,0.00
2009,09,01,01,29,0.00
2009,09,01,01,30,0.00
2009,09,01,01,31,0.00
2009,09,01,01,32,0.00
2009,09,01,01,33,0.00
2009,09,01,01,34,0.00
2009,09,01,01,35,0.00
2009,09,01,01,36,0.00
2009,09,01,01,37,0.00
2009,09,01,01,38,0.00
2009,09,01,01,39,0.00
2009,09,01,01,40,0.00
2009,09,01,01,41,0.00
2009,09,01,01,42,0.00
2009,09,01,01,43,0.00
2009,09,01,01,44,0.00
2009,09,01,01,45,0.00
2009,09,01,01,46,0.00
2009,09,01,01,47,0.00
2009,09,01,01,48,0.00
2009,09,01,01,49,0.00
2009,09,01,01,50,0.00
2009,09,01,01,51,0.00
2009,09,01,01,52,0.00
2009,09,01,01,53,0.00
2009,09,01,01,54,0.00
2009,09,01,01,55,0.00
2009,09,01,01,56,0.00
2009,09,01,01,57,0.00
2009,09,01,01,58,0.00
2009,09,01,01,59,0.00
2009,09,01,02,00,0.00
2009,09,01,02,01,0.00
2009,09,01,02,02,0.00
2009,09,01,02,03,0.00
2009,09,01,02,04,0.00
2009,09,01,02,05,0.00
2009,09,01,02,06,0.00
2009,09,01,02,07,0.00
2009,09,01,02,08,0.00
2009,09,01,02,09,0.00
2009,09,01,02,10,0.00
2009,09,01,02,11,0.00
2009,09,01,02,12,0.00
2009,09,01,02,13,0.00
2009,09,01,02,14,0.00
2009,09,01,02,15,0.00
2009,09,01,02,16,0.00
2009,09,01,02,17,0.00
2009,09,01,02,18,0.00
2009,09,01,02,19,0.00
2009,09,01,02,20,0.00
2009,09,01,02,21,0.00
2009,09,01,02,22,0.00
2009,09,01,02,23,0.00
2009,09,01,02,24,0.00
2009,09,01,02,25,0.00
2009,09,01,02,26,0.00
2009,09,01,02,27,0.00
2009,09,01,02,28,0.00
2009,09,01,02,29,0.00
2009,09,01,02,30,0.00
2009,09,01,02,31,0.00
2009,09,01,02,32,0.00
2009,09,01,02,33,0.00
2009,09,01,02,34,0.00
2009,09,01,02,35,0.00
2009,09,01,02,36,0.00
2009,09,01,02,37,0.00
2009,09,01,02,38,0.00
2009,09,01,02,39,0.00
2009,09,01,02,40,0.00
2009,09,01,02,41,0.00
2009,09,01,02,42,0.00
2009,09,01,02,43,0.00
2009,09,01,02,44,0.00
2009,09,01,02,45,0.00
2009,09,01,02,46,0.00
2009,09,01,02,47,0.00
2009,09,01,02,48,0.00
2009,09,01,02,49,0.00
2009,09,01,02,50,0.00
2009,09,01,02,51,0.00
2009,09,01,02,52,0.00
2009,09,01,02,53,0.00
2009,09,01,02,54,0.00
2009,09,01,02,55,0.00
2009,09,01,02,56,0.00
2009,09,01,02,57,0.00
2009,09,01,02,58,0.00
2009,09,01,02,59,0.00
2009,09,01,03,00,0.00
2009,09,01,03,01,0.00
2009,09,01,03,02,0.00
2009,09,01,03,03,0.00
2009,09,01,03,04,0.00
2009,09,01,03,05,0.00
2009,09,01,03,06,0.00
2009,09,01,03,07,0.00
2009,09,01,03,08,0.00
2009,09,01,03,09,0.00
2009,09,01,03,10,0.00
2009,09,01,03,11,0.00
2009,09,01,03,12,0.00
2009,09,01,03,13,0.00
2009,09,01,03,14,0.00
2009,09,01,03,15,0.00
2009,09,01,03,16,0.00
2009,09,01,03,17,0.00
2009,09,01,03,18,0.00
2009,09,01,03,19,0.00
2009,09,01,03,20,0.00
2009,09,01,03,21,0.00
2009,09,01,03,22,0.00
2009,09,01,03,23,0.00
2009,09,01,03,24,0.00
2009,09,01,03,25,0.00
2009,09,01,03,26,0.00
2009,09,01,03,27,0.00
2009,09,01,03,28,0.00
2009,09,01,03,29,0.00
2009,09,01,03,30,0.00
2009,09,01,03,31,0.00
2009,09,01,03,32,0.00
2009,09,01,03,33,0.00
2009,09,01,03,34,0.00
2009,09,01,03,35,0.00
2009,09,01,03,36,0.00
2009,09,01,03,37,0.00
2009,09,01,03,38,0.00
2009,09,01,03,39,0.00
2009,09,01,03,40,0.00
2009,09,01,03,41,0.00
2009,09,01,03,42,0.00
2009,09,01,03,43,0.00
2009,09,01,03,44,0.00
2009,09,01,03,45,0.00
2009,09,01,03,46,0.00
2009,09,01,03,47,0.00
2009,09,01,03,48,0.00
2009,09,01,03,49,0.00
2009,09,01,03,50,0.00
2009,09,01,03,51,0.00
2009,09,01,03,52,0.00
2009,09,01,03,53,0.00
2009,09,01,03,54,0.00
2009,09,01,03,55,0.00
2009,09,01,03,56,0.00
2009,09,01,03,57,0.00
2009,09,01,03,58,0.00
2009,09,01,03,59,0.00
2009,09,01,04,00,0.00
2009,09,01,04,01,0.00
2009,09,01,04,02,0.00
2009,09,01,04,03,0.00
2009,09,01,04,04,0.00
2009,09,01,04,05,0.00
2009,09,01,04,06,0.00
2009,09,01,04,07,0.00
2009,09,01,04,08,0.00
2009,09,01,04,09,0.00
2009,09,01,04,10,0.00
2009,09,01,04,11,0.00
2009,09,01,04,12,0.00
2009,09,01,04,13,0.00
2009,09,01,04,14,0.00
2009,09,01,04,15,0.00
2009,09,01,04,16,0.00
2009,09,01,04,17,0.00
2009,09,01,04,18,0.00
2009,09,01,04,19,0.00
2009,09,01,04,20,0.00
2009,09,01,04,21,0.00
2009,09,01,04,22,0.00
2009,09,01,04,23,0.00
2009,09,01,04,24,0.00
2009,09,01,04,25,0.00
2009,09,01,04,26,0.00
2009,09,01,04,27,0.00
2009,09,01,04,28,0.00
2009,09,01,04,29,0.00
2009,09,01,04,30,0.00
2009,09,01,04,31,0.00
2009,09,01,04,32,0.00
2009,09,01,04,33,0.00
2009,09,01,04,34,0.00
2009,09,01,04,35,0.00
2009,09,01,04,36,0.00
2009,09,01,04,37,0.00
2009,09,01,04,38,0.00
2009,09,01,04,39,0.00
2009,09,01,04,40,0.00
2009,09,01,04,41,0.00
2009,09,01,04,42,0.00
2009,09,01,04,43,0.00
2009,09,01,04,44,0.00
2009,09,01,04,45,0.00
2009,09,01,04,46,0.00
2009,09,01,04,47,0.00
2009,09,01,04,48,0.00
2009,09,01,04,49,0.00
2009,09,01,04,50,0.00
2009,09,01,04,51,0.00
2009,09,01,04,52,0.00
2009,09,01,04,53,0.00
2009,09,01,04,54,0.00
2009,09,01,04,55,0.00
2009,09,01,04,56,0.00
2009,09,01,04,57,0.00
2009,09,01,04,58,0.00
2009,09,01,04,59,0.00
2009,09,01,05,00,0.00
2009,09,01,05,01,0.00
2009,09,01,05,02,0.00
2009,09,01,05,03,0.00
2009,09,01,05,04,0.00
2009,09,01,05,05,0.00
2009,09,01,05,06,0.00
2009,09,01,05,07,0.00
2009,09,01,05,08,0.00
2009,09,01,05,09,0.00
2009,09,01,05,10,0.00
2009,09,01,05,11,0.00
2009,09,01,05,12,0.00
2009,09,01,05,13,0.00
2009,09,01,05,14,0.00
2009,09,01,05,15,0.00
2009,09,01,05,16,0.00
2009,09,01,05,17,0.00
2009,09,01,05,18,0.00
2009,09,01,05,19,0.00
2009,09,01,05,20,0.00
2009,09,01,05,21,0.00
2009,09,01,05,22,0.00
2009,09,01,05,23,0.00
2009,09,01,05,24,0.00
2009,09,01,05,25,0.00
2009,09,01,05,26,0.00
2009,09,01,05,27,0.00
2009,09,01,05,28,0.00
2009,09,01,05,29,0.00
2009,09,01,05,30,0.00
2009,09,01,05,31,0.00
2009,09,01,05,32,0.00
2009,09,01,05,33,0.00
2009,09,01,05,34,0.00
2009,09,01,05,35,0.00
2009,09,01,05,36,0.00
2009,09,01,05,37,0.00
2009,09,01,05,38,0.00
2009,09,01,05,39,0.00
2009,09,01,05,40,0.00
2009,09,01,05,41,0.00
2009,09,01,05,42,0.00
2009,09,01,05,43,0.00
2009,09,01,05,44,0.00
2009,09,01,05,45,0.00
2009,09,01,05,46,0.00
2009,09,01,05,47,0.00
2009,09,01,05,48,0.00
2009,09,01,05,49,0.00
2009,09,01,05,50,0.00
2009,09,01,05,51,0.00
2009,09,01,05,52,0.00
2009,09,01,05,53,0.00
2009,09,01,05,54,0.00
2009,09,01,05,55,0.00
2009,09,01,05,56,0.00
2009,09,01,05,57,0.00
2009,09,01,05,58,0.00
2009,09,01,05,59,0.00
2009,09,01,06,00,0.00
2009,09,01,06,01,0.00
2009,09,01,06,02,0.00
2009,09,01,06,03,0.00
2009,09,01,06,04,0.00
2009,09,01,06,05,0.00
2009,09,01,06,06,0.00
2009,09,01,06,07,0.00
2009,09,01,06,08,0.00
2009,09,01,06,09,0.00
2009,09,01,06,10,0.00
2009,09,01,06,11,0.00
2009,09,01,06,12,0.00
2009,09,01,06,13,0.00
2009,09,01,06,14,0.00
2009,09,01,06,15,0.00
2009,09,01,06,16,0.00
2009,09,01,06,17,0.00
2009,09,01,06,18,0.00
2009,09,01,06,19,0.00
2009,09,01,06,20,0.00
2009,09,01,06,21,0.00
2009,09,01,06,22,0.00
2009,09,01,06,23,0.00
2009,09,01,06,24,0.00
2009,09,01,06,25,0.00
2009,09,01,06,26,0.00
2009,09,01,06,27,0.00
2009,09,01,06,28,0.00
2009,09,01,06,29,0.00
2009,09,01,06,30,0.00
2009,09,01,06,31,4.00
2009,09,01,06,32,5.00
2009,09,01,06,33,5.00
2009,09,01,06,34,5.00
2009,09,01,06,35,5.60
2009,09,01,06,36,7.00
2009,09,01,06,37,7.00
2009,09,01,06,38,8.30
2009,09,01,06,39,9.00
2009,09,01,06,40,10.70
2009,09,01,06,41,11.10
2009,09,01,06,42,12.00
2009,09,01,06,43,12.50
2009,09,01,06,44,14.00
2009,09,01,06,45,14.90
2009,09,01,06,46,16.00
2009,09,01,06,47,17.30
2009,09,01,06,48,18.80
2009,09,01,06,49,19.00
2009,09,01,06,50,21.00
2009,09,01,06,51,21.00
2009,09,01,06,52,22.30
2009,09,01,06,53,25.40
2009,09,01,06,54,27.10
2009,09,01,06,55,28.00
2009,09,01,06,56,28.00
2009,09,01,06,57,31.40
2009,09,01,06,58,32.00
2009,09,01,06,59,32.00
2009,09,01,07,00,32.80
2009,09,01,07,01,35.60
2009,09,01,07,02,37.90
2009,09,01,07,03,39.00
2009,09,01,07,04,40.80
2009,09,01,07,05,43.60
2009,09,01,07,06,45.80
2009,09,01,07,07,47.10
2009,09,01,07,08,49.00
2009,09,01,07,09,50.20
2009,09,01,07,10,54.00
2009,09,01,07,11,56.10
2009,09,01,07,12,59.20
2009,09,01,07,13,60.00
2009,09,01,07,14,64.20
2009,09,01,07,15,66.80
2009,09,01,07,16,70.10
2009,09,01,07,17,72.40
2009,09,01,07,18,74.90
2009,09,01,07,19,77.80
2009,09,01,07,20,81.10
2009,09,01,07,21,83.60
2009,09,01,07,22,86.90
2009,09,01,07,23,90.60
2009,09,01,07,24,93.10
2009,09,01,07,25,97.30
2009,09,01,07,26,101.00
2009,09,01,07,27,104.40
2009,09,01,07,28,106.80
2009,09,01,07,29,110.20
2009,09,01,07,30,113.10
2009,09,01,07,31,115.60
2009,09,01,07,32,117.80
2009,09,01,07,33,120.10
2009,09,01,07,34,121.00
2009,09,01,07,35,122.30
2009,09,01,07,36,125.80
2009,09,01,07,37,127.00
2009,09,01,07,38,127.60
2009,09,01,07,39,129.50
2009,09,01,07,40,131.60
2009,09,01,07,41,133.90
2009,09,01,07,42,134.10
2009,09,01,07,43,135.50
2009,09,01,07,44,137.60
2009,09,01,07,45,139.80
2009,09,01,07,46,141.00
2009,09,01,07,47,141.00
2009,09,01,07,48,136.30
2009,09,01,07,49,135.00
2009,09,01,07,50,116.90
2009,09,01,07,51,97.80
2009,09,01,07,52,102.00
2009,09,01,07,53,99.90
2009,09,01,07,54,97.00
2009,09,01,07,55,112.10
2009,09,01,07,56,107.30
2009,09,01,07,57,100.00
2009,09,01,07,58,100.00
2009,09,01,07,59,100.70
2009,09,01,08,00,107.40
2009,09,01,08,01,109.60
2009,09,01,08,02,111.00
2009,09,01,08,03,112.10
2009,09,01,08,04,111.70
2009,09,01,08,05,111.00
2009,09,01,08,06,109.30
2009,09,01,08,07,105.30
2009,09,01,08,08,104.00
2009,09,01,08,09,103.50
2009,09,01,08,10,102.70
2009,09,01,08,11,103.10
2009,09,01,08,12,102.00
2009,09,01,08,13,100.60
2009,09,01,08,14,98.40
2009,09,01,08,15,97.20
2009,09,01,08,16,94.80
2009,09,01,08,17,93.00
2009,09,01,08,18,93.00
2009,09,01,08,19,93.70
2009,09,01,08,20,95.00
2009,09,01,08,21,96.70
2009,09,01,08,22,100.90
2009,09,01,08,23,102.00
2009,09,01,08,24,108.60
2009,09,01,08,25,109.20
2009,09,01,08,26,111.40
2009,09,01,08,27,113.30
2009,09,01,08,28,114.90
2009,09,01,08,29,118.30
2009,09,01,08,30,120.70
2009,09,01,08,31,121.00
2009,09,01,08,32,122.80
2009,09,01,08,33,123.10
2009,09,01,08,34,125.00
2009,09,01,08,35,125.00
2009,09,01,08,36,125.70
2009,09,01,08,37,126.00
2009,09,01,08,38,125.00
2009,09,01,08,39,125.00
2009,09,01,08,40,125.00
2009,09,01,08,41,121.20
2009,09,01,08,42,117.80
2009,09,01,08,43,116.00
2009,09,01,08,44,116.00
2009,09,01,08,45,116.00
2009,09,01,08,46,117.10
2009,09,01,08,47,119.90
2009,09,01,08,48,125.40
2009,09,01,08,49,133.70
2009,09,01,08,50,145.40
2009,09,01,08,51,165.60
2009,09,01,08,52,187.60
2009,09,01,08,53,205.30
2009,09,01,08,54,234.10
2009,09,01,08,55,237.30
2009,09,01,08,56,227.60
2009,09,01,08,57,181.90
2009,09,01,08,58,163.80
2009,09,01,08,59,174.00
2009,09,01,09,00,192.20
2009,09,01,09,01,226.10
2009,09,01,09,02,231.10
2009,09,01,09,03,223.00
2009,09,01,09,04,238.80
2009,09,01,09,05,241.70
2009,09,01,09,06,239.00
2009,09,01,09,07,255.20
2009,09,01,09,08,251.00
2009,09,01,09,09,251.00
2009,09,01,09,10,232.90
2009,09,01,09,11,230.20
2009,09,01,09,12,264.30
2009,09,01,09,13,233.50
2009,09,01,09,14,185.80
2009,09,01,09,15,166.10
2009,09,01,09,16,162.10
2009,09,01,09,17,162.20
2009,09,01,09,18,164.10
2009,09,01,09,19,167.00
2009,09,01,09,20,167.00
2009,09,01,09,21,171.10
2009,09,01,09,22,193.60
2009,09,01,09,23,224.10
2009,09,01,09,24,198.50
2009,09,01,09,25,200.40
2009,09,01,09,26,204.40
2009,09,01,09,27,206.00
2009,09,01,09,28,210.20
2009,09,01,09,29,219.70
2009,09,01,09,30,223.00
2009,09,01,09,31,234.80
2009,09,01,09,32,236.40
2009,09,01,09,33,235.50
2009,09,01,09,34,227.50
2009,09,01,09,35,231.80
2009,09,01,09,36,231.10
2009,09,01,09,37,220.60
2009,09,01,09,38,220.00
2009,09,01,09,39,222.10
2009,09,01,09,40,228.50
2009,09,01,09,41,233.60
2009,09,01,09,42,239.40
2009,09,01,09,43,247.10
2009,09,01,09,44,253.20
2009,09,01,09,45,260.80
2009,09,01,09,46,259.00
2009,09,01,09,47,242.90
2009,09,01,09,48,237.00
2009,09,01,09,49,237.00
2009,09,01,09,50,254.20
2009,09,01,09,51,257.00
2009,09,01,09,52,257.20
2009,09,01,09,53,263.10
2009,09,01,09,54,265.20
2009,09,01,09,55,245.60
2009,09,01,09,56,235.80
2009,09,01,09,57,232.50
2009,09,01,09,58,229.30
2009,09,01,09,59,222.80
2009,09,01,10,00,218.90
2009,09,01,10,01,211.80
2009,09,01,10,02,209.00
2009,09,01,10,03,208.00
2009,09,01,10,04,209.30
2009,09,01,10,05,214.40
2009,09,01,10,06,216.00
2009,09,01,10,07,222.00
2009,09,01,10,08,227.30
2009,09,01,10,09,230.00
2009,09,01,10,10,230.00
2009,09,01,10,11,230.00
2009,09,01,10,12,229.50
2009,09,01,10,13,227.70
2009,09,01,10,14,225.50
2009,09,01,10,15,223.30
2009,09,01,10,16,223.00
2009,09,01,10,17,222.20
2009,09,01,10,18,218.00
2009,09,01,10,19,219.80
2009,09,01,10,20,223.90
2009,09,01,10,21,230.20
2009,09,01,10,22,239.90
2009,09,01,10,23,254.10
2009,09,01,10,24,301.20
2009,09,01,10,25,278.00
2009,09,01,10,26,279.10
2009,09,01,10,27,285.10
2009,09,01,10,28,293.80
2009,09,01,10,29,306.70
2009,09,01,10,30,313.00
2009,09,01,10,31,460.70
2009,09,01,10,32,524.00
2009,09,01,10,33,710.30
2009,09,01,10,34,684.00
2009,09,01,10,35,631.10
2009,09,01,10,36,483.00
2009,09,01,10,37,483.00
2009,09,01,10,38,377.70
2009,09,01,10,39,273.40
2009,09,01,10,40,291.50
2009,09,01,10,41,328.50
2009,09,01,10,42,302.50
2009,09,01,10,43,276.00
2009,09,01,10,44,276.80
2009,09,01,10,45,275.00
2009,09,01,10,46,269.90
2009,09,01,10,47,278.20
2009,09,01,10,48,283.00
2009,09,01,10,49,499.00
2009,09,01,10,50,571.00
2009,09,01,10,51,571.00
2009,09,01,10,52,571.00
2009,09,01,10,53,571.00
2009,09,01,10,54,525.10
2009,09,01,10,55,458.50
2009,09,01,10,56,455.00
2009,09,01,10,57,455.00
2009,09,01,10,58,460.90
2009,09,01,10,59,462.00
2009,09,01,11,00,478.50
2009,09,01,11,01,619.00
2009,09,01,11,02,619.00
2009,09,01,11,03,619.00
2009,09,01,11,04,613.00
2009,09,01,11,05,604.60
2009,09,01,11,06,616.50
2009,09,01,11,07,621.00
2009,09,01,11,08,616.30
2009,09,01,11,09,531.00
2009,09,01,11,10,550.30
2009,09,01,11,11,600.00
2009,09,01,11,12,612.00
2009,09,01,11,13,386.40
2009,09,01,11,14,252.80
2009,09,01,11,15,260.00
2009,09,01,11,16,260.00
2009,09,01,11,17,246.90
2009,09,01,11,18,239.70
2009,09,01,11,19,250.00
2009,09,01,11,20,250.00
2009,09,01,11,21,254.60
2009,09,01,11,22,259.30
2009,09,01,11,23,260.00
2009,09,01,11,24,260.00
2009,09,01,11,25,257.20
2009,09,01,11,26,258.60
2009,09,01,11,27,264.20
2009,09,01,11,28,244.30
2009,09,01,11,29,232.90
2009,09,01,11,30,193.00
2009,09,01,11,31,142.70
2009,09,01,11,32,140.20
2009,09,01,11,33,141.90
2009,09,01,11,34,142.90
2009,09,01,11,35,152.00
2009,09,01,11,36,157.30
2009,09,01,11,37,160.00
2009,09,01,11,38,178.40
2009,09,01,11,39,195.00
2009,09,01,11,40,312.90
2009,09,01,11,41,371.10
2009,09,01,11,42,399.90
2009,09,01,11,43,409.10
2009,09,01,11,44,415.00
2009,09,01,11,45,421.00
2009,09,01,11,46,442.40
2009,09,01,11,47,454.00
2009,09,01,11,48,454.00
2009,09,01,11,49,506.10
2009,09,01,11,50,520.00
2009,09,01,11,51,540.00
2009,09,01,11,52,541.00
2009,09,01,11,53,572.30
2009,09,01,11,54,640.00
2009,09,01,11,55,576.80
2009,09,01,11,56,520.00
2009,09,01,11,57,385.80
2009,09,01,11,58,330.90
2009,09,01,11,59,318.60
2009,09,01,12,00,307.10
2009,09,01,12,01,302.00
2009,09,01,12,02,303.50
2009,09,01,12,03,309.10
2009,09,01,12,04,319.30
2009,09,01,12,05,325.00
2009,09,01,12,06,350.80
2009,09,01,12,07,385.10
2009,09,01,12,08,407.00
2009,09,01,12,09,408.00
2009,09,01,12,10,419.60
2009,09,01,12,11,440.20
2009,09,01,12,12,420.00
2009,09,01,12,13,413.10
2009,09,01,12,14,450.70
2009,09,01,12,15,425.80
2009,09,01,12,16,406.50
2009,09,01,12,17,416.40
2009,09,01,12,18,453.00
2009,09,01,12,19,483.00
2009,09,01,12,20,483.00
2009,09,01,12,21,483.00
2009,09,01,12,22,531.00
2009,09,01,12,23,563.00
2009,09,01,12,24,563.00
2009,09,01,12,25,786.70
2009,09,01,12,26,861.00
2009,09,01,12,27,861.00
2009,09,01,12,28,861.00
2009,09,01,12,29,646.40
2009,09,01,12,30,408.00
2009,09,01,12,31,684.20
2009,09,01,12,32,825.40
2009,09,01,12,33,823.00
2009,09,01,12,34,797.00
2009,09,01,12,35,563.00
2009,09,01,12,36,494.50
2009,09,01,12,37,349.30
2009,09,01,12,38,375.50
2009,09,01,12,39,387.80
2009,09,01,12,40,378.50
2009,09,01,12,41,400.00
2009,09,01,12,42,454.30
2009,09,01,12,43,461.30
2009,09,01,12,44,444.40
2009,09,01,12,45,463.10
2009,09,01,12,46,454.00
2009,09,01,12,47,454.00
2009,09,01,12,48,473.30
2009,09,01,12,49,530.40
2009,09,01,12,50,543.00
2009,09,01,12,51,553.50
2009,09,01,12,52,762.80
2009,09,01,12,53,814.70
2009,09,01,12,54,867.00
2009,09,01,12,55,867.00
2009,09,01,12,56,859.50
2009,09,01,12,57,854.00
2009,09,01,12,58,866.00
2009,09,01,12,59,846.60
2009,09,01,13,00,844.00
2009,09,01,13,01,777.50
2009,09,01,13,02,578.00
2009,09,01,13,03,618.50
2009,09,01,13,04,668.00
2009,09,01,13,05,738.70
2009,09,01,13,06,780.00
2009,09,01,13,07,728.20
2009,09,01,13,08,719.00
2009,09,01,13,09,709.20
2009,09,01,13,10,615.70
2009,09,01,13,11,558.00
2009,09,01,13,12,491.70
2009,09,01,13,13,478.00
2009,09,01,13,14,478.00
2009,09,01,13,15,432.20
2009,09,01,13,16,419.70
2009,09,01,13,17,443.60
2009,09,01,13,18,461.00
2009,09,01,13,19,461.00
2009,09,01,13,20,483.00
2009,09,01,13,21,519.30
2009,09,01,13,22,515.00
2009,09,01,13,23,515.00
2009,09,01,13,24,409.40
2009,09,01,13,25,360.30
2009,09,01,13,26,343.80
2009,09,01,13,27,332.20
2009,09,01,13,28,325.60
2009,09,01,13,29,323.00
2009,09,01,13,30,323.00
2009,09,01,13,31,324.40
2009,09,01,13,32,325.00
2009,09,01,13,33,325.00
2009,09,01,13,34,324.70
2009,09,01,13,35,319.20
2009,09,01,13,36,313.40
2009,09,01,13,37,309.00
2009,09,01,13,38,304.00
2009,09,01,13,39,296.70
2009,09,01,13,40,294.30
2009,09,01,13,41,294.00
2009,09,01,13,42,294.90
2009,09,01,13,43,296.20
2009,09,01,13,44,307.40
2009,09,01,13,45,314.00
2009,09,01,13,46,316.80
2009,09,01,13,47,318.00
2009,09,01,13,48,316.10
2009,09,01,13,49,310.60
2009,09,01,13,50,309.00
2009,09,01,13,51,308.00
2009,09,01,13,52,289.00
2009,09,01,13,53,281.20
2009,09,01,13,54,276.00
2009,09,01,13,55,269.40
2009,09,01,13,56,256.80
2009,09,01,13,57,253.00
2009,09,01,13,58,241.90
2009,09,01,13,59,232.70
2009,09,01,14,00,230.40
2009,09,01,14,01,214.90
2009,09,01,14,02,208.80
2009,09,01,14,03,202.20
2009,09,01,14,04,199.00
2009,09,01,14,05,194.60
2009,09,01,14,06,190.50
2009,09,01,14,07,190.00
2009,09,01,14,08,191.80
2009,09,01,14,09,195.60
2009,09,01,14,10,200.30
2009,09,01,14,11,205.80
2009,09,01,14,12,211.40
2009,09,01,14,13,216.20
2009,09,01,14,14,221.40
2009,09,01,14,15,226.20
2009,09,01,14,16,231.50
2009,09,01,14,17,243.50
2009,09,01,14,18,255.20
2009,09,01,14,19,271.20
2009,09,01,14,20,290.60
2009,09,01,14,21,312.50
2009,09,01,14,22,330.80
2009,09,01,14,23,350.00
2009,09,01,14,24,364.50
2009,09,01,14,25,375.10
2009,09,01,14,26,376.20
2009,09,01,14,27,378.40
2009,09,01,14,28,380.00
2009,09,01,14,29,388.80
2009,09,01,14,30,391.00
2009,09,01,14,31,400.20
2009,09,01,14,32,404.20
2009,09,01,14,33,406.90
2009,09,01,14,34,414.70
2009,09,01,14,35,452.00
2009,09,01,14,36,452.00
2009,09,01,14,37,452.00
2009,09,01,14,38,428.10
2009,09,01,14,39,445.90
2009,09,01,14,40,480.00
2009,09,01,14,41,428.20
2009,09,01,14,42,428.90
2009,09,01,14,43,479.50
2009,09,01,14,44,482.00
2009,09,01,14,45,482.00
2009,09,01,14,46,490.00
2009,09,01,14,47,501.00
2009,09,01,14,48,734.10
2009,09,01,14,49,870.00
2009,09,01,14,50,840.40
2009,09,01,14,51,781.80
2009,09,01,14,52,779.00
2009,09,01,14,53,779.00
2009,09,01,14,54,779.00
2009,09,01,14,55,827.00
2009,09,01,14,56,893.00
2009,09,01,14,57,893.00
2009,09,01,14,58,893.00
2009,09,01,14,59,476.50
2009,09,01,15,00,401.30
2009,09,01,15,01,368.90
2009,09,01,15,02,356.40
2009,09,01,15,03,353.90
2009,09,01,15,04,355.80
2009,09,01,15,05,333.90
2009,09,01,15,06,308.80
2009,09,01,15,07,310.00
2009,09,01,15,08,331.60
2009,09,01,15,09,322.60
2009,09,01,15,10,255.90
2009,09,01,15,11,248.00
2009,09,01,15,12,240.40
2009,09,01,15,13,227.40
2009,09,01,15,14,222.40
2009,09,01,15,15,217.30
2009,09,01,15,16,210.10
2009,09,01,15,17,203.90
2009,09,01,15,18,195.90
2009,09,01,15,19,188.20
2009,09,01,15,20,181.20
2009,09,01,15,21,176.10
2009,09,01,15,22,172.20
2009,09,01,15,23,169.60
2009,09,01,15,24,166.00
2009,09,01,15,25,163.20
2009,09,01,15,26,162.30
2009,09,01,15,27,155.40
2009,09,01,15,28,151.70
2009,09,01,15,29,148.60
2009,09,01,15,30,147.00
2009,09,01,15,31,146.00
2009,09,01,15,32,143.10
2009,09,01,15,33,141.20
2009,09,01,15,34,139.10
2009,09,01,15,35,139.00
2009,09,01,15,36,139.00
2009,09,01,15,37,139.70
2009,09,01,15,38,142.40
2009,09,01,15,39,145.20
2009,09,01,15,40,147.40
2009,09,01,15,41,148.80
2009,09,01,15,42,150.80
2009,09,01,15,43,153.00
2009,09,01,15,44,155.00
2009,09,01,15,45,155.20
2009,09,01,15,46,156.00
2009,09,01,15,47,156.00
2009,09,01,15,48,157.20
2009,09,01,15,49,158.00
2009,09,01,15,50,161.00
2009,09,01,15,51,162.90
2009,09,01,15,52,164.20
2009,09,01,15,53,175.30
2009,09,01,15,54,181.00
2009,09,01,15,55,186.40
2009,09,01,15,56,196.70
2009,09,01,15,57,200.00
2009,09,01,15,58,215.50
2009,09,01,15,59,218.40
2009,09,01,16,00,218.30
2009,09,01,16,01,223.90
2009,09,01,16,02,230.80
2009,09,01,16,03,237.80
2009,09,01,16,04,241.00
2009,09,01,16,05,247.90
2009,09,01,16,06,256.20
2009,09,01,16,07,262.70
2009,09,01,16,08,264.00
2009,09,01,16,09,274.70
2009,09,01,16,10,282.30
2009,09,01,16,11,287.00
2009,09,01,16,12,291.50
2009,09,01,16,13,290.70
2009,09,01,16,14,283.80
2009,09,01,16,15,283.00
2009,09,01,16,16,288.60
2009,09,01,16,17,290.00
2009,09,01,16,18,323.90
2009,09,01,16,19,338.50
2009,09,01,16,20,343.20
2009,09,01,16,21,374.00
2009,09,01,16,22,374.00
2009,09,01,16,23,584.60
2009,09,01,16,24,698.00
2009,09,01,16,25,405.40
2009,09,01,16,26,312.60
2009,09,01,16,27,396.00
2009,09,01,16,28,396.00
2009,09,01,16,29,396.00
2009,09,01,16,30,327.90
2009,09,01,16,31,239.20
2009,09,01,16,32,225.10
2009,09,01,16,33,226.20
2009,09,01,16,34,254.90
2009,09,01,16,35,244.20
2009,09,01,16,36,271.00
2009,09,01,16,37,273.50
2009,09,01,16,38,282.60
2009,09,01,16,39,302.70
2009,09,01,16,40,274.30
2009,09,01,16,41,240.40
2009,09,01,16,42,230.20
2009,09,01,16,43,221.40
2009,09,01,16,44,212.80
2009,09,01,16,45,206.00
2009,09,01,16,46,198.00
2009,09,01,16,47,182.20
2009,09,01,16,48,174.10
2009,09,01,16,49,165.40
2009,09,01,16,50,157.50
2009,09,01,16,51,153.30
2009,09,01,16,52,151.30
2009,09,01,16,53,153.40
2009,09,01,16,54,155.90
2009,09,01,16,55,160.10
2009,09,01,16,56,165.10
2009,09,01,16,57,167.00
2009,09,01,16,58,180.30
2009,09,01,16,59,192.90
2009,09,01,17,00,180.60
2009,09,01,17,01,173.70
2009,09,01,17,02,171.00
2009,09,01,17,03,166.90
2009,09,01,17,04,155.90
2009,09,01,17,05,145.80
2009,09,01,17,06,142.00
2009,09,01,17,07,129.50
2009,09,01,17,08,117.30
2009,09,01,17,09,110.90
2009,09,01,17,10,104.20
2009,09,01,17,11,99.40